Theta_e
310 309 309 308 308 308 308 309 309 310 310 310 305 302 305 308 312 311 308 308 309 309 312 313 312 311 310 309 308 305 312 312 311 309 311 310 311 310 309 309 309 309 308 308 307
311 311 310 309 309 308 308 309 309 309 310 310 304 302 306 309 312 311 308 308 309 310 312 312 311 310 309 310 308 309 311 311 308 307 311 311 310 311 311 310 310 309 307 306 306
313 312 311 310 309 307 308 309 309 309 310 308 304 302 308 310 312 310 309 309 310 311 312 312 312 311 312 310 309 307 308 307 311 311 311 311 311 310 311 311 309 310 308 305 305
316 314 312 312 311 310 308 307 307 307 307 306 302 303 311 314 312 311 308 310 311 312 312 311 311 311 311 312 310 310 309 310 312 312 311 312 310 311 309 310 308 306 306 304 305
319 317 315 313 312 312 311 309 307 306 305 304 303 305 313 310 308 311 309 310 312 312 312 310 311 310 312 310 310 311 310 311 311 311 310 310 311 310 308 307 306 306 305 305 304
320 319 318 317 314 313 312 311 309 307 306 303 303 307 313 307 310 309 310 312 313 312 312 311 310 309 310 311 310 310 311 311 310 311 311 312 311 310 308 305 305 306 305 304 304
319 320 320 319 317 315 314 313 312 310 308 303 303 309 309 305 310 309 311 312 313 312 311 312 312 310 310 312 311 311 312 309 310 311 311 309 310 311 308 306 306 306 305 304 303
318 320 319 320 319 317 315 314 313 311 309 302 302 308 303 309 309 309 311 312 313 312 312 312 312 310 312 310 308 311 308 311 310 311 311 309 314 310 304 307 308 306 304 304 304
315 317 320 320 320 319 317 315 314 312 304 303 305 307 301 309 309 309 310 311 312 311 311 310 309 310 309 308 309 306 312 309 309 311 311 311 313 310 305 306 307 305 305 305 304
310 312 315 318 319 319 318 316 314 306 306 307 308 302 302 306 308 309 310 311 311 310 309 308 306 308 308 308 319 312 312 312 311 310 311 312 312 311 309 306 307 306 305 305 304
306 310 312 315 318 318 317 315 303 304 307 302 301 300 305 307 308 308 310 310 309 308 308 309 307 309 308 307 310 312 313 313 309 309 310 310 310 308 307 306 307 306 305 305 304
303 305 309 312 317 317 316 311 304 302 302 300 305 305 307 307 307 308 309 308 308 307 309 309 309 308 307 308 311 311 311 310 308 307 309 307 308 308 305 304 304 305 304 304 303
301 302 305 311 316 315 314 313 306 301 299 300 304 306 307 307 307 307 307 307 306 310 310 310 311 308 310 310 311 310 310 308 311 307 306 305 310 309 307 308 307 305 303 303 304
301 301 303 309 313 313 312 316 315 302 318 315 303 304 307 307 308 307 307 308 308 307 309 310 308 310 310 311 310 313 308 308 309 308 310 305 315 309 306 305 307 308 304 303 302
298 299 300 303 308 309 309 310 308 308 329 309 303 304 305 306 307 308 307 307 308 308 308 310 309 310 311 311 308 311 307 308 308 309 309 307 308 311 304 307 308 308 305 302 301
296 297 298 302 306 309 304 304 309 319 328 309 305 307 306 307 308 307 308 306 304 307 306 307 306 307 308 306 306 306 308 307 306 308 310 306 308 315 306 306 305 307 305 302 299
295 295 296 297 306 307 303 309 313 321 313 310 306 306 306 308 309 309 310 309 308 307 309 308 308 306 306 307 307 306 307 313 312 311 316 308 309 313 308 304 304 305 305 302 298
294 294 294 297 305 305 305 309 317 315 314 306 306 305 306 307 308 308 309 309 307 306 308 308 307 306 305 307 308 306 307 313 315 313 309 308 312 313 306 305 304 304 304 302 298
293 292 296 299 300 304 307 310 317 315 311 308 306 307 306 307 307 308 308 308 307 306 310 308 308 305 306 305 306 307 308 305 307 298 307 308 307 305 303 303 306 304 303 302 299
292 294 296 301 303 303 306 312 313 312 307 307 317 311 308 307 309 307 306 306 307 306 305 308 312 306 306 305 305 306 303 308 305 309 310 309 307 311 307 306 301 304 303 302 299
292 294 298 301 303 303 306 309 308 309 310 310 314 311 309 308 307 308 308 307 305 305 305 305 309 308 306 307 307 305 306 305 305 306 310 310 313 304 306 305 304 302 302 301 299
290 285 295 299 303 301 305 305 308 310 310 311 310 312 310 308 307 308 308 307 305 305 307 306 307 307 307 305 303 304 305 304 309 308 305 306 310 305 303 303 304 303 302 300 298
288 283 293 299 303 303 302 304 307 311 312 313 313 311 309 308 312 308 307 306 304 306 308 306 302 301 306 305 302 305 304 304 303 304 306 310 311 304 302 303 302 302 300 300 298
282 288 287 296 296 299 303 306 307 308 310 312 314 311 309 311 309 309 307 306 305 305 307 307 306 309 313 313 305 306 305 304 305 305 308 306 309 308 306 305 304 302 300 299 298
281 282 290 287 288 293 297 299 303 302 303 306 312 312 311 312 311 311 308 306 306 307 306 306 304 305 307 305 306 307 306 305 306 308 309 310 307 310 310 306 304 300 300 300 299
281 289 285 288 292 289 296 295 297 297 301 302 297 297 306 314 312 312 310 309 310 306 306 306 309 303 304 304 304 303 305 305 306 307 305 306 307 307 305 303 301 301 300 300 300
289 290 289 286 288 290 291 293 295 295 297 296 295 296 306 301 300 303 306 310 311 309 308 307 305 310 307 304 302 311 308 304 304 302 307 308 309 305 307 303 302 302 301 300 299
Wind_Speed
9 10 10 9 11 12 13 15 15 15 16 17 15 13 10 9 3 2 2 1 2 3 1 3 5 4 3 3 3 2 3 3 5 7 3 2 3 3 1 3 3 4 3 2 11
9 9 9 11 14 14 13 14 15 15 15 16 15 12 10 8 4 5 3 2 3 2 2 5 3 4 2 2 2 3 3 7 3 4 4 2 4 2 3 4 5 3 3 8 10
11 10 10 9 11 12 13 12 12 14 15 16 15 12 9 5 2 3 4 1 2 1 2 4 4 2 3 2 2 3 5 3 4 3 3 2 2 3 3 6 8 7 6 8 8
14 13 13 13 11 12 13 14 15 15 16 16 15 10 7 1 3 3 1 2 2 3 4 4 3 3 3 4 3 2 4 3 2 3 3 3 1 4 8 6 3 8 4 6 7
16 16 15 14 14 13 13 14 14 15 16 15 13 10 2 1 5 3 1 2 4 4 3 3 4 4 3 4 4 4 1 3 3 4 5 1 7 6 9 11 4 5 6 8 7
15 17 17 16 15 15 14 14 15 15 15 15 10 8 1 3 4 3 1 3 4 6 4 3 4 3 3 3 4 3 3 4 4 3 3 4 4 1 5 0 7 7 8 7 7
18 16 19 16 16 15 16 15 16 16 16 13 7 6 1 8 2 2 2 2 1 4 4 2 4 2 4 2 1 1 5 4 3 3 3 2 6 9 3 2 4 8 7 7 8
16 17 17 20 16 15 16 16 16 17 18 8 3 2 6 2 3 3 4 3 3 4 4 5 5 4 2 2 4 1 3 4 1 2 2 1 8 4 3 4 7 7 7 7 7
15 14 13 16 17 15 14 15 16 17 9 2 1 1 7 2 3 5 5 3 5 5 4 5 4 3 2 3 4 6 3 2 6 3 1 1 7 4 2 4 7 8 8 8 6
16 15 10 11 15 15 14 14 15 6 2 3 1 3 1 4 4 4 4 7 2 4 3 4 4 3 3 3 4 3 2 3 4 2 1 4 19 18 10 7 12 9 8 8 8
19 17 13 12 11 11 11 5 1 1 5 8 5 3 1 4 5 3 4 5 3 3 5 0 3 6 8 5 4 5 2 4 4 1 3 7 14 21 13 10 15 12 10 10 9
20 19 18 16 10 11 8 3 3 2 6 6 3 2 4 5 3 4 7 5 5 5 4 3 6 4 6 4 3 2 0 5 4 0 1 6 22 21 7 5 6 9 9 10 6
20 20 19 20 7 10 9 8 5 3 2 4 4 5 5 9 5 8 10 6 4 6 7 6 1 4 5 4 4 2 4 3 4 6 1 7 9 5 1 3 3 5 5 5 10
19 20 17 9 4 5 5 11 12 3 2 5 5 5 4 6 3 2 8 4 2 9 8 4 2 4 2 3 5 2 2 3 1 4 3 4 6 8 3 7 3 2 3 5 7
19 20 21 10 15 1 3 9 11 2 4 3 3 1 3 5 6 1 1 2 7 6 5 4 7 4 3 4 6 3 3 3 2 2 3 2 2 8 4 4 2 4 3 4 6
20 20 20 10 11 5 6 16 8 2 9 2 2 3 5 1 2 3 3 3 3 4 2 2 0 3 4 3 2 7 4 4 3 2 2 2 3 6 3 4 2 2 4 6 6
19 21 20 13 4 5 15 3 2 5 1 4 4 4 1 4 3 4 6 6 7 5 5 1 2 2 3 5 3 3 4 3 4 2 5 2 1 10 5 6 4 7 8 7 6
24 25 18 14 7 12 14 2 7 5 5 3 4 5 6 6 3 5 6 6 5 3 3 7 4 8 5 5 6 5 6 5 6 2 4 3 6 6 5 1 4 2 6 7 7
25 19 11 8 18 22 4 5 6 5 6 9 4 4 3 4 5 3 6 5 8 11 7 6 3 1 1 2 3 6 5 3 6 2 2 4 7 9 4 5 2 6 5 8 8
22 8 6 8 15 14 4 6 4 3 4 4 8 7 9 6 6 7 9 6 7 13 3 7 3 1 1 2 2 3 4 3 2 3 4 4 5 5 3 6 8 7 8 7 7
8 4 3 4 17 2 3 5 5 6 3 5 6 6 5 7 7 6 5 4 6 7 6 6 4 1 3 6 8 3 3 2 2 4 5 1 5 6 4 3 8 9 8 9 9
3 2 5 8 3 2 2 4 2 4 3 3 2 2 8 10 8 5 9 5 5 10 9 5 5 4 6 1 2 3 7 8 4 5 2 2 6 1 4 3 3 6 8 7 8
1 3 6 3 3 3 2 3 2 2 4 6 4 2 2 8 4 7 6 1 7 8 16 9 2 3 5 3 2 5 6 4 3 2 6 6 5 1 3 4 4 5 6 7 7
2 3 4 2 3 3 3 1 3 5 6 4 1 4 1 3 2 6 5 1 1 2 5 4 4 7 9 5 6 7 8 10 6 3 4 6 6 5 5 5 4 5 6 6 7
2 2 2 3 3 3 3 6 3 5 6 8 3 6 5 3 2 4 2 0 2 1 2 3 6 5 3 2 3 5 7 16 18 17 8 4 13 15 13 7 7 7 6 6 8
3 2 3 2 4 5 7 8 9 5 4 4 6 16 7 3 2 5 8 5 4 2 4 1 1 3 2 3 1 4 8 12 16 13 10 14 22 11 12 3 4 7 7 8 9
1 1 2 5 4 3 2 2 5 6 4 6 7 8 6 8 11 12 13 5 5 8 9 4 4 3 4 2 3 9 15 12 7 7 15 15 21 5 2 6 8 8 8 9 10
Wind_Direction
331 336 335 332 332 334 341 340 339 345 344 340 343 338 335 331 315 255 261 249 276 295 268 144 115 118 105 89 83 142 68 227 234 170 233 186 171 179 263 140 220 204 180 165 152
326 328 335 337 336 337 335 337 341 339 332 337 340 337 332 330 326 271 236 253 291 300 165 134 122 138 66 80 45 99 142 225 211 188 213 205 176 195 199 201 235 228 194 159 165
308 314 322 331 335 335 333 329 327 331 335 336 338 335 336 324 347 234 195 222 246 224 145 130 122 118 102 93 181 151 210 211 237 212 187 206 240 209 197 241 219 203 194 178 181
298 302 307 313 321 330 332 335 334 332 333 335 340 337 334 167 199 150 177 221 215 181 154 117 86 108 133 188 166 210 235 221 228 215 168 214 238 250 203 234 163 212 164 166 187
295 292 296 300 310 318 327 331 332 332 332 334 341 337 357 324 252 176 218 223 181 162 152 141 145 138 185 180 145 201 255 231 235 224 245 298 242 239 246 237 225 143 161 182 197
297 311 293 294 299 306 314 322 327 329 330 332 337 346 338 250 160 174 173 163 178 170 150 146 182 168 133 178 171 173 242 256 264 235 249 238 251 66 246 241 198 179 199 204 207
285 291 299 291 291 299 305 314 319 321 322 324 328 348 32 239 201 174 154 143 140 178 132 155 137 155 130 139 265 184 301 309 231 233 241 209 263 233 192 115 181 210 217 221 224
304 283 285 292 288 284 294 305 314 315 313 305 297 331 245 221 197 186 163 130 131 127 144 135 136 103 75 123 27 35 55 336 205 198 288 263 272 281 53 171 238 231 229 229 231
319 310 286 288 296 278 280 293 304 308 303 266 209 127 267 184 193 187 184 168 126 112 101 105 83 102 64 105 9 11 257 271 320 218 331 102 277 273 96 186 253 238 229 229 240
339 341 329 285 292 284 280 293 304 283 212 167 90 43 239 222 157 163 156 164 129 113 73 56 55 86 48 105 226 232 299 263 253 319 4 259 262 268 250 211 240 231 227 227 226
340 332 330 301 288 289 277 300 354 217 221 201 191 174 148 134 134 172 163 137 106 73 167 336 126 203 209 189 146 127 170 264 266 339 288 254 277 280 274 229 246 239 227 225 219
338 332 331 334 285 258 246 235 214 195 301 223 212 251 163 186 116 216 166 159 166 181 134 65 223 203 114 145 158 142 209 273 278 319 252 321 293 283 282 245 232 242 236 224 171
343 332 333 331 273 212 208 216 183 172 233 274 189 181 184 156 212 193 155 160 164 148 188 168 177 134 141 136 139 186 179 231 247 320 69 321 290 324 276 276 239 257 252 208 190
349 344 325 344 236 205 214 241 221 162 259 221 216 242 141 162 211 140 188 151 146 189 165 222 149 153 146 169 137 248 189 161 20 31 274 15 284 305 316 304 256 264 230 198 164
339 344 338 317 297 240 278 173 156 94 251 52 152 97 145 167 129 341 171 86 165 172 148 215 156 157 164 207 167 196 127 120 99 88 357 335 72 269 343 314 242 215 195 174 173
333 331 332 325 307 257 179 145 130 144 228 146 96 153 126 111 99 128 150 60 134 109 33 99 311 168 172 75 88 148 94 58 61 81 345 220 141 282 229 208 204 185 194 169 164
330 325 310 289 264 226 159 160 115 215 115 190 164 158 116 148 126 164 167 169 161 129 191 45 218 151 134 88 37 99 88 334 341 11 227 119 52 249 246 217 195 186 201 191 182
328 319 307 256 235 209 172 94 211 200 200 122 119 124 175 160 194 164 143 190 223 121 129 163 271 167 188 198 173 177 166 167 226 226 286 54 234 252 206 269 211 201 199 180 187
328 329 299 264 217 179 185 221 195 196 160 145 110 129 224 201 150 153 201 209 194 183 185 156 256 74 74 146 144 180 192 163 108 62 33 226 275 285 231 256 179 188 187 202 199
329 315 280 297 196 175 205 227 245 242 129 180 180 175 179 191 163 188 185 205 198 185 166 197 108 326 151 115 35 161 166 95 358 186 251 274 277 245 268 239 207 207 214 213 206
327 322 310 206 167 173 215 215 217 252 246 183 219 168 161 171 188 197 205 260 211 183 153 143 112 302 129 212 175 136 204 72 125 171 180 260 261 213 248 263 207 212 205 200 203
355 352 335 328 157 215 216 182 271 263 105 260 278 249 169 161 178 220 210 245 178 144 178 184 114 165 200 277 196 188 191 178 156 209 241 142 273 214 249 318 209 211 211 208 204
11 253 320 347 227 198 235 256 269 273 197 193 233 304 23 166 196 196 189 347 181 172 162 180 205 80 356 348 355 212 199 188 119 93 199 152 253 224 228 257 239 228 228 215 202
67 354 317 10 18 2 332 269 239 235 245 263 257 110 73 266 289 162 201 155 67 226 304 139 160 174 187 189 136 191 195 184 163 150 187 222 258 239 205 206 174 228 236 213 202
57 272 261 332 341 353 276 356 347 7 352 2 220 226 183 243 266 192 175 16 66 211 263 205 201 171 227 141 167 203 180 187 203 211 196 234 218 249 265 232 216 197 181 187 201
92 10 353 314 310 8 16 4 17 360 335 57 17 333 297 210 305 205 183 164 179 98 184 266 266 108 284 163 260 287 228 198 213 227 270 268 277 248 253 232 161 197 194 213 213
100 80 108 331 344 49 2 331 356 359 43 73 340 332 330 8 313 288 279 185 158 169 188 168 154 121 261 111 107 283 213 192 190 195 207 222 239 203 248 206 228 232 229 231 229